"Pseudo-MPEC" for P10Nz3I

Created 2019 May 24 15:07:25 UT using Find_Orb

Click here for an explanation of pseudo-MPECs

 
 Astrometry: 
     P10Nz3I  C2019 05 07ag`GQex?K+qavC:OL9;:^A8Cw/4ghOTOP+nN$@Zv'0?v_Ei9a]x\F51
     P10Nz3I  C2019 05 07!jRyn?ACsJNY?]_63@F,p`R9AstrometrySmv+Owu/PNWIpUw@)VF51
     P10Nz3I  C2019 05 07__mxv'sBgC\?]623A1q%;E]d;8a6AqOredacted;Z?(VF!Sgx5-5F51
     P10Nz3I HC2019 05 09%sI!iZroO=Rm3D/I?ZxyyVyclick[/g4xtI$GrY7,Q,[H8)[\8^!291
     P10Nz3I KC2019 05 09r]TL=0KSs8grfjP4c/%o:e+b#hx9\nRsH$kY*D,Be$/U.wqhegMN291
     P10Nz3I KC2019 05 14j;]ubQ'\y,M2jK?26hereCuE,r#t,C;Yq_tQBI9sPOM6V_[$9K4qH21
     P10Nz3I KC2019 05 14.-5e[u.Q.Y6for\03+$,[-YrsxywkKyZvaAeM`5-HID*3Wik=JyQH21
     P10Nz3I KC2019 05 14vqJOpGtu!Tqbu6iRv%_D()(;:q-2v`cLWg!'hv#i*N,euX;T=:\!H21
     P10Nz3I KC2019 05 15Bxon_'DEDpV1L]T`C,i)2.%DI3cpq`Hf.-HR,FbXNEfP`/7)9I7r291
     P10Nz3I KC2019 05 15H`+d$U[#!dI2pp42(=XnGrW^!Jb8v0R(t0]U(;0.%ZtP*cbf@4'l291
     P10Nz3I KC2019 05 24kfmpN_l^8N2fA+'Qm`eh6oQy[1sI8f;X3e`s1xe`0g+L-]@mHb^r691
     P10Nz3I KC2019 05 24m]SX0#JPr)d7C7HBb,Ch8JuuDCw,'oy#1(Z[YRexplanationdwC691
     P10Nz3I  C2019 05 24.33758 16 53 33.22 -00 25 38.8    ~5O8b       VNEOCPI52
     P10Nz3I  C2019 05 24.34259 16 53 32.73 -00 25 58.0    ~5O8b 21.4 GVNEOCPI52
     P10Nz3I  C2019 05 24.34510 16 53 32.44 -00 26 08.4    ~5O8b 21.3 GVNEOCPI52

Station data:
(291) LPL/Spacewatch II  (N31.961669 W111.599905)  US/Arizona.  Observers J.
   V. Scotti, R. S. McMillan. 1.8-m f/2.7 reflector + CCD.
(691) Steward Observatory, Kitt Peak - Spacewatch  (N31.962174 W111.600327)
   US/Arizona.  Observer J. V. Scotti. 0.9-m f/3 reflector + CCD.
(F51) Pan-STARRS 1, Haleakala  (N20.707235 W156.255910)  US/Hawaii.
   Observers N. Primak, A. Schultz, S. Watters, J. Thiel, T. Goggia. Measurer
   PS1 Science Consortium. 1.8-m Ritchey-Chrétien + CCD.
(H21) Astronomical Research Observatory, Westfield  (N39.483057 W87.968270)
   US/Illinois. 0.76-m f/3.0 astrograph + CCD.
(I52) Steward Observatory, Mt. Lemmon Station  (N32.442547 W110.788920)
   US/Arizona.  Observers T. A. Pruyne, B. M. Africano, E. J. Christensen, G.
   A. Farneth, D. C. Fuls, A. R. Gibbs, A. D. Grauer, H. Groeller, J. A.
   Johnson, R. A. Kowalski, S. M. Larson, G. J. Leonard, R. L. Seaman, F. C.
   Shelly. 1.0-m reflector + CCD.

Orbital elements:  P10Nz3I
   Perihelion 2019 Apr 18.479511 +/- 0.0369 TT = 11:30:29 (JD 2458591.979511)
Epoch 2019 May 24.0 TT = JDT 2458627.5   Earth MOID: 0.2427   AutoNEOCP
M  17.77719636 +/- 0.037            (J2000 ecliptic)
n   0.50047723 +/- 0.000526         Peri.  136.96667 +/- 0.038
a   1.57113376 +/- 0.0011           Node    77.86606 +/- 0.0031
e   0.2282820 +/- 0.000353          Incl.   17.63826 +/- 0.021
P   1.97/719.30d           H 23.2   G  0.15   U  7.7  
q 1.21247210 +/- 0.000295    Q 1.92979542 +/- 0.0019
From 15 observations 2019 May 7-24; mean residual 0".24
Residuals in arcseconds: 
190507 F51  .19-  .12-    190514 H21  .05+  .12-    190524 691  .10+  .06-    
190507 F51  .00   .21-    190514 H21  .08-  .21+    190524 691  .01-  .19+    
190507 F51  .04+  .15-    190514 H21  .52+  .07+    190524 I52  .07+  .47-    
190509 291  .01+  .57+    190515 291  .01-  .11-    190524 I52  .23+  .36+    
190509 291  .18+  .00     190515 291  .52-  .22-    190524 I52  .35-  .00     

Ephemerides (geocentric):
Date (UTC) HH   RA              Dec         delta   r     elong  mag " sig PA
---- -- -- --  -------------   -----------  ------ ------ -----  --- ---- ---
2019 05 24 15  16 53 08.025   -00 44 30.52  .24528 1.2416 156.6 21.6 .107 118
2019 05 24 16  16 53 04.364   -00 47 17.89  .24525 1.2417 156.7 21.6 .110 119
2019 05 24 17  16 53 00.700   -00 50 05.36  .24522 1.2417 156.7 21.6 .112 120
2019 05 24 18  16 52 57.032   -00 52 52.94  .24519 1.2418 156.8 21.6 .115 120
2019 05 24 19  16 52 53.360   -00 55 40.63  .24516 1.2419 156.9 21.6 .118 121
2019 05 24 20  16 52 49.685   -00 58 28.42  .24513 1.2419 156.9 21.6 .121 122
2019 05 24 21  16 52 46.006   -01 01 16.32  .24510 1.2420 157.0 21.6 .124 122
2019 05 24 22  16 52 42.324   -01 04 04.32  .24507 1.2421 157.0 21.6 .127 123
2019 05 24 23  16 52 38.637   -01 06 52.43  .24504 1.2421 157.1 21.6 .130 123
2019 05 25 00  16 52 34.948   -01 09 40.64  .24502 1.2422 157.2 21.6 .133 124
2019 05 25 01  16 52 31.254   -01 12 28.95  .24499 1.2423 157.2 21.5 .136 124
2019 05 25 02  16 52 27.558   -01 15 17.36  .24496 1.2423 157.3 21.5 .139 125
2019 05 25 03  16 52 23.857   -01 18 05.88  .24493 1.2424 157.4 21.5 .142 125
2019 05 25 04  16 52 20.153   -01 20 54.49  .24491 1.2425 157.4 21.5 .145 126
2019 05 25 05  16 52 16.446   -01 23 43.21  .24488 1.2425 157.5 21.5 .148 126
2019 05 25 06  16 52 12.734   -01 26 32.03  .24485 1.2426 157.5 21.5 .151 127
2019 05 25 07  16 52 09.020   -01 29 20.95  .24483 1.2427 157.6 21.5 .154 127
2019 05 25 08  16 52 05.302   -01 32 09.96  .24480 1.2427 157.7 21.5 .158 128
2019 05 25 09  16 52 01.580   -01 34 59.08  .24478 1.2428 157.7 21.5 .161 128
2019 05 25 10  16 51 57.856   -01 37 48.29  .24475 1.2429 157.8 21.5 .164 129
2019 05 25 11  16 51 54.127   -01 40 37.60  .24473 1.2429 157.9 21.5 .167 129
2019 05 25 12  16 51 50.395   -01 43 27.00  .24470 1.2430 157.9 21.5 .171 129
2019 05 25 13  16 51 46.660   -01 46 16.51  .24468 1.2431 158.0 21.5 .174 130
2019 05 25 14  16 51 42.921   -01 49 06.11  .24465 1.2431 158.0 21.5 .177 130
2019 05 25 15  16 51 39.179   -01 51 55.80  .24463 1.2432 158.1 21.5 .181 131
2019 05 25 16  16 51 35.434   -01 54 45.59  .24461 1.2433 158.2 21.5 .184 131
2019 05 25 17  16 51 31.685   -01 57 35.47  .24458 1.2433 158.2 21.5 .188 131
2019 05 25 18  16 51 27.933   -02 00 25.45  .24456 1.2434 158.3 21.5 .191 132
2019 05 25 19  16 51 24.178   -02 03 15.52  .24454 1.2435 158.4 21.5 .194 132
2019 05 25 20  16 51 20.419   -02 06 05.68  .24452 1.2435 158.4 21.5 .198 132
2019 05 25 21  16 51 16.657   -02 08 55.93  .24450 1.2436 158.5 21.5 .202 133
2019 05 25 22  16 51 12.892   -02 11 46.27  .24448 1.2437 158.5 21.5 .205 133
2019 05 25 23  16 51 09.124   -02 14 36.71  .24445 1.2437 158.6 21.5 .209 133
2019 05 26 00  16 51 05.352   -02 17 27.23  .24443 1.2438 158.7 21.5 .212 134
2019 05 26 01  16 51 01.577   -02 20 17.85  .24441 1.2439 158.7 21.5 .216 134
2019 05 26 02  16 50 57.799   -02 23 08.55  .24439 1.2439 158.8 21.5 .220 134
2019 05 26 03  16 50 54.017   -02 25 59.34  .24437 1.2440 158.9 21.5 .223 135
2019 05 26 04  16 50 50.233   -02 28 50.22  .24436 1.2441 158.9 21.5 .227 135
2019 05 26 05  16 50 46.445   -02 31 41.19  .24434 1.2441 159.0 21.5 .231 135
2019 05 26 06  16 50 42.654   -02 34 32.24  .24432 1.2442 159.0 21.5 .235 136
2019 05 26 07  16 50 38.860   -02 37 23.38  .24430 1.2443 159.1 21.5 .238 136
2019 05 26 08  16 50 35.063   -02 40 14.61  .24428 1.2443 159.2 21.5 .242 136
2019 05 26 09  16 50 31.263   -02 43 05.92  .24426 1.2444 159.2 21.5 .246 137
2019 05 26 10  16 50 27.460   -02 45 57.31  .24425 1.2445 159.3 21.5 .250 137
2019 05 26 11  16 50 23.653   -02 48 48.79  .24423 1.2445 159.4 21.5 .254 137
2019 05 26 12  16 50 19.844   -02 51 40.35  .24421 1.2446 159.4 21.5 .258 137
2019 05 26 13  16 50 16.031   -02 54 32.00  .24420 1.2447 159.5 21.5 .262 138
2019 05 26 14  16 50 12.216   -02 57 23.72  .24418 1.2447 159.5 21.5 .266 138